Regional Weather Roundup
Issued by NWS

Home | Current Version | Previous Version | Graphics & Text | Print | Product List | Glossary On
Versions: 1 2 3 4 5 6 7 8 9 10 11 12 13 14 15 16 17 18 19 20 21 22 23 24 25 26 27 28 29 30 31 32 33 34 35 36 37 38 39 40 41 42 43 44 45 46 47 48 49 50
000
ASUS44 KMEG 041000
RWRTN
TENNESSEE HOURLY STATE WEATHER ROUNDUP
NATIONAL WEATHER SERVICE MEMPHIS TN
400 AM CST WED MAR 04 2015

TNZ002-004-019-021-049-052-054-088>092-041100-
WEST TENNESSEE

CITY           SKY/WX    TMP DP  RH WIND       PRES   REMARKS
MEMPHIS INTL   LGT RAIN  59  57  93 CALM      29.85S VSB 1
NWS MEMPHIS      N/A     62 N/A N/A MISG        N/A
JACKSON        LGT RAIN  53  52  96 N8        29.86S FOG
DYERSBURG      CLOUDY    46  36  66 E6        29.89S
UNION CITY     CLOUDY    45  45 100 NE6       29.87S
PARIS          CLOUDY    46  45  93 NE6       29.87F
LEXINGTON      CLOUDY    64  63  94 S10       29.83S
SAVANNAH       CLOUDY    66  66 100 S16       29.87S
$$

TNZ008-025-027-028-033-062-065-066-041100-
NORTH MIDDLE TENNESSEE

CITY           SKY/WX    TMP DP  RH WIND       PRES   REMARKS
NASHVILLE      CLOUDY    64  62  93 S8        29.85R
CLARKSVILLE    RAIN      47  46  97 N8        29.90R FOG
COOKEVILLE     CLOUDY    63  61  94 SW12      29.87F
CROSSVILLE     HVY RAIN  60  58  92 W6        29.91S FOG
$$

TNZ061-075-076-078-094-096-097-041100-
SOUTH MIDDLE TENNESSEE

CITY           SKY/WX    TMP DP  RH WIND       PRES   REMARKS
FAYETTEVILLE   CLOUDY    61  61 100 S10         N/A
TULLAHOMA      CLOUDY    63  61  94 SW15      29.91S
WINCHESTER     CLOUDY    63  61  94 SW12      29.93S
COLUMBIA         N/A    N/A N/A N/A SW14      29.85S
SHELBYVILLE    CLOUDY    64  64 100 S13       29.90R
$$

TNZ017-018-042-046-047-041100-
NORTHEAST TENNESSEE

CITY           SKY/WX    TMP DP  RH WIND       PRES   REMARKS
TRI CITIES     LGT RAIN  45  45 100 CALM      29.93R VSB 1/2
ELIZABETHTON   LGT RAIN  46  46 100 SW3       29.94R FOG
$$

TNZ012-013-036-069-073-074-041100-
CENTRAL EAST TENNESSEE

CITY           SKY/WX    TMP DP  RH WIND       PRES   REMARKS
KNOXVILLE      LGT RAIN  58  57  97 SW13      29.91S
OAK RIDGE      LGT RAIN  54  53  97 W5        29.93F FOG
GATLINBURG     PTSUNNY   48  46  93 CALM      29.90S
$$

TNZ083-085-099-041100-
SOUTHEAST TENNESSEE

CITY           SKY/WX    TMP DP  RH WIND       PRES   REMARKS
CHATTANOOGA    CLOUDY    58  57  97 S5        29.95S
$$

SKY/WX REPORTED AS FAIR MEANS FEW OR NO CLOUDS BELOW
12 THOUSAND FEET.



USA.gov is the U.S. government's official web portal to all federal, state and local government web resources and services.